Regional Weather Roundup
Issued by NWS

Home | Current Version | Previous Version | Text Only | Print | Product List | Glossary Off
Versions: 1 2 3 4 5 6 7 8 9 10 11 12 13 14 15 16 17 18 19 20 21 22 23 24 25 26 27 28 29 30 31 32 33 34 35 36 37 38 39 40 41 42 43 44 45 46 47 48 49 50

000
ASUS43 KMKX 261600
RWRWI

WISCONSIN REGIONAL WEATHER ROUNDUP
NATIONAL WEATHER SERVICE MILWAUKEE/SULLIVAN WI
1100 AM CDT FRI MAY 26 2017

NOTE: "FAIR" INDICATES FEW OR NO CLOUDS BELOW 12,000 FEET WITH NO
SIGNIFICANT WEATHER AND/OR OBSTRUCTIONS TO VISIBILITY.

WIZ001-002-006>008-014>016-023>028-261700-
NORTHWEST WISCONSIN

CITY           SKY/WX    TMP DP  RH WIND       PRES   REMARKS
SUPERIOR ARPT  NOT AVBL
ASHLAND        CLOUDY    56  51  84 NE3       29.76S
HAYWARD        CLOUDY    65  53  65 SE5       29.75F
SIREN          CLOUDY    65  54  65 S9        29.74S
CUMBERLAND     CLOUDY    63  52  67 S9        29.76S
RICE LAKE      CLOUDY    69  52  55 S12       29.77F
CHETEK         CLOUDY    68  56  65 MISG      29.77S
LADYSMITH      CLOUDY    67  56  67 S9        29.80S
EAU CLAIRE     NOT AVBL
MENOMONIE      CLOUDY    69  54  59 S9G16     29.77S
NEW RICHMOND   CLOUDY    65  55  70 S10       29.76S
OSCEOLA        CLOUDY    67  55  64 S10       29.76F
$$

WIZ003>005-009-010-017-018-261700-
NORTH CENTRAL WISCONSIN

CITY           SKY/WX    TMP DP  RH WIND       PRES   REMARKS
MANITOWISH WTR CLOUDY    63  56  77 SE9       29.80F
ARBOR VITAE    PTSUNNY   63  55  74 SE5       29.80F
WOODRUFF       PTSUNNY   63  55  74 SE5       29.80F
RHINELANDER    CLOUDY    65  55  70 S5        29.83R
EAGLE RIVER    CLOUDY    63  52  67 CALM      29.82S
LAND O LAKES   CLOUDY    65  53  64 CALM      29.83S
PHILLIPS       CLOUDY    65  54  66 S9        29.79S
TOMAHAWK       CLOUDY    62  55  76 CALM      29.82R
MEDFORD        CLOUDY    64  56  78 S10       29.81S
MERRILL        MOSUNNY   66  57  72 S5        29.82S
$$

WIZ029-030-035-036-043>047-261700-
CENTRAL WISCONSIN

CITY           SKY/WX    TMP DP  RH WIND       PRES   REMARKS
WAUSAU         CLOUDY    67  55  65 S8        29.80S
MOSINEE        PTSUNNY   64  57  77 SE9       29.83S
MARSHFIELD     PTSUNNY   68  57  68 S8        29.80S
STEVENS POINT  MOSUNNY   63  56  78 SE8       29.83S
WAUPACA        MOSUNNY   67  57  70 SE7       29.84S
WAUTOMA        CLOUDY    66  55  67 SE9       29.82F
WISC RAPIDS    MOSUNNY   69  58  67 S8        29.82S
CAMP DOUGLAS   NOT AVBL
$$

WIZ011>013-019>022-031-037>040-048>050-261700-
NORTHEAST WISCONSIN

CITY           SKY/WX    TMP DP  RH WIND       PRES   REMARKS
ANTIGO         CLOUDY    64  57  77 SE6       29.83S
SHAWANO        SUNNY     67  56  67 SE6       29.84S
OCONTO         MOSUNNY   64  53  67 SE6       29.84S
STURGEON BAY   PTSUNNY   63  54  72 VRB6      29.85F HAZE
GREEN BAY      SUNNY     66  57  72 E5        29.84S
MANITOWOC      MOSUNNY   57  54  88 E7        29.86F
APPLETON       NOT AVBL
CLINTONVILLE   SUNNY     66  54  63 SE5       29.84R
OSHKOSH        CLOUDY    66  55  67 E8        29.83S
$$

WIZ032>034-041-042-053>061-261700-
SOUTHWEST WISCONSIN

CITY           SKY/WX    TMP DP  RH WIND       PRES   REMARKS
LA CROSSE      CLOUDY    71  58  63 SW9       29.78R
SPARTA         MOSUNNY   71  56  59 S8        29.79S
VIROQUA        CLOUDY    67  55  65 MISG      29.78F
BOSCOBEL       CLOUDY    68  56  65 SE5       29.79R
PRAIRIE DU CHI CLOUDY    65  54  65 SE7       29.77R
PLATTEVILLE    CLOUDY    64  59  86 SE5       29.80R
$$

WIZ056-057-062-063-064-067-068-261700-
SOUTH CENTRAL WISCONSIN

CITY           SKY/WX    TMP DP  RH WIND       PRES   REMARKS
REEDSBURG      CLOUDY    68  56  65 SE8       29.80S
BARABOO/DELLS  CLOUDY    67  55  64 SE13      29.80S
LONE ROCK      NOT AVBL
MINERAL POINT  CLOUDY    64  59  82 SE6       29.80S
MADISON        CLOUDY    67  57  70 SE10      29.81S
MIDDLETON      PTSUNNY   68  56  65 SE8       29.82S
WATERTOWN      MOSUNNY   67  56  69 SE9       29.84R
MONROE         CLOUDY    64  54  68 SE10      29.80F
JANESVILLE     MOSUNNY   70  55  60 SE10      29.81S
$$

WIZ051-052-058>065-066-070>072-261700-
SOUTHEAST WISCONSIN

CITY           SKY/WX    TMP DP  RH WIND       PRES   REMARKS
MILWAUKEE      CLOUDY    58  53  84 SE6       29.87S
WAUKESHA       SUNNY     63  54  72 E9        29.86F
MILWAUKEE/TIMM SUNNY     63  50  63 E5        29.87F
RACINE         PTSUNNY   55  50  83 SE6       29.89F
KENOSHA        MOSUNNY   62  53  72 E10       29.87S
FOND DU LAC    CLOUDY    67  52  58 SE5       29.84S
SHEBOYGAN      CLOUDY    60  55  83 SE6       29.87R
WEST BEND      CLOUDY    63  54  72 SE7       29.85F
JUNEAU         PTSUNNY   65  56  74 E6        29.85S
$$

LSZ147-162-261700-
LAKE SUPERIOR

STATION/POSITION TIME  TEMP    WIND        PRES    WAVE
                       AIR SEA DIR/SP/G            HT/PER
                 (UTC) (F)     (DEG/KT/KT) (MB)    (FT/S)
W MID LAKE BUOY  1450   42 37  170/  4/  6 1009.0R   1
DEVILS ISLAND    1500   49     100/  8/  8 1008.0R
PORT WING        1540   42     350/  3/  5 1007.8R
SAXON HARBOR     1540   50     310/  2/  3 1007.8S
$$

LMZ867-665-643>646-261700-
LAKE MICHIGAN

STATION/POSITION TIME  TEMP    WIND        PRES    WAVE
                       AIR SEA DIR/SP/G            HT/PER
                 (UTC) (F)     (DEG/KT/KT) (MB)    (FT/S)
CHAMBERS ISLAND  1540   61      CALM  /  3 1010.5F
N MID LAKE BUOY  1450   46 43  250/  4/  4 1011.6S   0
NORTHPORT PIER   1540   53     340/  3/  5 1011.2R
KEWAUNEE LAKESHO 1530   52     170/  3/  4 1010.9S
SHEBOYGAN LAKESH 1500   47      80/  6/  6 1011.3S
PORT WASHINGTON  1540   49     100/  4/  4 1012.5F
ATWATER BUOY     1409   47      CALM  /  2 1012.0R
MILWAUKEE LAKESH 1530   49     110/  3/  3   N/A
S MID LAKE BUOY  1450   46 46  180/  2/  6 1012.3R   1/ 4
KENOSHA   LAKESH 1500   51     100/  2/  3 1012.2
$$

TC  - TEMPERATURE IN CELSIUS
VSB - VISIBILITY IN STATUTE MILES
WCI - WIND CHILL INDEX
HX  - HEAT INDEX





USA.gov is the U.S. government's official web portal to all federal, state and local government web resources and services.